Location: Góry Miechowskie
(50.3599°N, 20.1803°E)
Time: 21:45:11
(UTC+00:00)

Cosmos 1869 - Pass Details

Date: 19 September 2024
Orbit: 484 x 518 km, 82.5° (Epoch: 06 October)

Event Time Altitude Azimuth Distance (km) Brightness Sun altitude
Exits shadow 01:51:20 14° 330° (NNW) 1,479 5.5 -23.3°
Drops below altitude 10° 01:52:14 10° 341° (NNW) 1,728 6.0 -23.2°
Sets 01:54:46 0° 359° (N) 2,610 7.2 -22.8°
